FW4132 Weather Reports


Display with metric or nautical units.
time (UTC)temp
F
wind
direction
speed
MPH
gust
MPH
rain 1hr
in
rain 24hr
in
rain mn
in
humidity
%
barometer
mb
20260507104003 45 296 1.0 4.0 0.00 0.00 0.00 68 1015.0
20260507103954 45 296 1.0 4.0 0.00 0.00 0.00 69 1016.6
20260507103503 45 246 2.0 4.0 0.00 0.00 0.00 67 1015.0
20260507103448 46 246 1.0 4.0 0.00 0.00 0.00 68 1016.6
20260507103022 46 306 0.0 3.0 0.00 0.00 0.00 67 1015.1
20260507102941 46 306 1.0 3.0 0.00 0.00 0.00 67 1016.7
20260507102503 46 308 1.0 3.0 0.00 0.00 0.00 65 1015.0
20260507102435 47 308 1.0 3.0 0.00 0.00 0.00 66 1016.6
20260507102003 46 300 0.0 3.0 0.00 0.00 0.00 65 1015.0
20260507101929 47 300 1.0 3.0 0.00 0.00 0.00 65 1016.6
20260507101647 47 284 2.0 6.0 0.00 0.00 0.00 65 1016.5
20260507101504 46 284 0.0 6.0 0.00 0.00 0.00 64 1015.0
20260507101002 46 284 1.0 6.0 0.00 0.00 0.00 65 1015.0
20260507100916 46 284 3.0 6.0 0.00 0.00 0.00 66 1016.5
20260507100504 45 284 2.0 6.0 0.00 0.00 0.00 66 1014.9
20260507100411 46 284 2.0 6.0 0.00 0.00 0.00 67 1016.4
20260507100122 46 285 2.0 3.0 0.00 0.00 0.00 67 1016.4
20260507100006 45 285 2.0 4.0 0.00 0.00 0.00 67 1014.9
20260507095504 46 285 1.0 4.0 0.00 0.00 0.00 65 1014.8
20260507095359 46 285 2.0 4.0 0.00 0.00 0.00 66 1016.4
20260507095003 46 285 2.0 4.0 0.00 0.00 0.00 66 1014.8
20260507094853 46 285 2.0 4.0 0.00 0.00 0.00 66 1016.3
20260507094509 46 308 2.0 6.0 0.00 0.00 0.00 66 1014.8
20260507094346 46 299 2.0 6.0 0.00 0.00 0.00 66 1016.3
20260507094104 46 284 2.0 6.0 0.00 0.00 0.00 66 1016.3
20260507094003 45 301 1.0 6.0 0.00 0.00 0.00 66 1014.8
20260507093502 45 288 2.0 3.0 0.00 0.00 0.00 66 1014.7
20260507093335 46 279 2.0 4.0 0.00 0.00 0.00 65 1016.3
20260507093008 46 258 1.0 4.0 0.00 0.00 0.00 64 1014.7
20260507092829 46 258 1.0 4.0 0.00 0.00 0.00 64 1016.3
20260507092509 46 257 1.0 4.0 0.00 0.00 0.00 63 1014.7
20260507092009 47 275 0.0 3.0 0.00 0.00 0.00 62 1014.7
20260507091817 47 246 0.0 3.0 0.00 0.00 0.00 63 1016.1
20260507091507 47 246 0.0 3.0 0.00 0.00 0.00 61 1014.7
20260507091311 48 246 1.0 3.0 0.00 0.00 0.00 62 1016.0
20260507091004 47 246 1.0 3.0 0.00 0.00 0.00 62 1014.6
20260507090806 47 266 1.0 3.0 0.00 0.00 0.00 62 1016.0
20260507090507 47 266 0.0 3.0 0.00 0.00 0.00 61 1014.6
20260507090259 48 266 1.0 5.0 0.00 0.00 0.00 61 1015.9
20260507090004 47 306 0.0 5.0 0.00 0.00 0.00 60 1014.5
20260507085753 48 306 2.0 5.0 0.00 0.00 0.00 61 1016.0
20260507085503 48 306 2.0 5.0 0.00 0.00 0.00 60 1014.4
20260507085003 47 300 1.0 5.0 0.00 0.00 0.00 61 1014.4
20260507084753 48 298 2.0 5.0 0.00 0.00 0.00 61 1015.8
20260507084508 47 304 2.0 5.0 0.00 0.00 0.00 62 1014.4
20260507084253 46 302 1.0 5.0 0.00 0.00 0.00 63 1015.9
20260507084003 45 21 0.0 4.0 0.00 0.00 0.00 63 1014.5
20260507083753 46 34 1.0 4.0 0.00 0.00 0.00 63 1015.9
20260507083505 46 324 1.0 4.0 0.00 0.00 0.00 63 1014.5
20260507083253 47 252 0.0 2.0 0.00 0.00 0.00 62 1016.0
20260507083012 46 236 0.0 2.0 0.00 0.00 0.00 61 1014.6
20260507082751 47 225 0.0 2.0 0.00 0.00 0.00 60 1016.1
20260507082503 47 225 0.0 2.0 0.00 0.00 0.00 59 1014.7
20260507082251 48 225 0.0 2.0 0.00 0.00 0.00 60 1016.1
20260507082002 48 225 0.0 2.0 0.00 0.00 0.00 59 1014.7
20260507081751 48 225 1.0 2.0 0.00 0.00 0.00 59 1016.0
20260507081516 48 225 0.0 2.0 0.00 0.00 0.00 59 1014.5
20260507081249 49 225 1.0 7.0 0.00 0.00 0.00 59 1015.9
20260507081006 48 225 0.0 3.0 0.00 0.00 0.00 57 1014.5
20260507080749 49 225 1.0 7.0 0.00 0.00 0.00 58 1016.0
20260507080513 50 239 2.0 9.0 0.00 0.00 0.00 57 1016.0
20260507080507 49 225 1.0 6.0 0.00 0.00 0.00 57 1014.6
20260507080013 49 238 0.0 9.0 0.00 0.00 0.00 56 1014.6
20260507075746 50 238 2.0 9.0 0.00 0.00 0.00 56 1015.9
20260507075503 49 223 3.0 9.0 0.00 0.00 0.00 56 1014.3
20260507075247 49 308 2.0 8.0 0.00 0.00 0.00 57 1015.8
20260507075010 49 309 0.0 8.0 0.00 0.00 0.00 56 1014.2
20260507074747 49 308 2.0 8.0 0.00 0.00 0.00 56 1015.7
20260507074506 49 261 4.0 7.0 0.00 0.00 0.00 55 1014.2
20260507074247 49 245 1.0 3.0 0.00 0.00 0.00 56 1015.6
20260507074003 50 245 0.0 3.0 0.00 0.00 0.00 55 1014.2
20260507073746 51 245 1.0 3.0 0.00 0.00 0.00 55 1015.7
20260507073503 50 245 0.0 4.0 0.00 0.00 0.00 53 1014.1
20260507073245 51 240 2.0 4.0 0.00 0.00 0.00 54 1015.6
20260507073007 50 231 1.0 4.0 0.00 0.00 0.00 54 1014.1
20260507072739 51 232 3.0 4.0 0.00 0.00 0.00 54 1015.5
20260507072506 50 242 2.0 4.0 0.00 0.00 0.00 54 1013.9
20260507072233 50 260 2.0 4.0 0.00 0.00 0.00 54 1015.5
20260507072002 50 259 2.0 4.0 0.00 0.00 0.00 54 1014.0
20260507071727 50 280 1.0 3.0 0.00 0.00 0.00 54 1015.6
20260507071513 50 116 0.0 4.0 0.00 0.00 0.00 54 1014.2
20260507071221 51 98 2.0 6.0 0.00 0.00 0.00 55 1015.5
20260507071003 50 98 1.0 6.0 0.00 0.00 0.00 53 1013.8
20260507070714 51 237 3.0 6.0 0.00 0.00 0.00 53 1015.1
20260507070503 50 237 2.0 6.0 0.00 0.00 0.00 53 1013.6
20260507070209 50 264 2.0 5.0 0.00 0.00 0.00 54 1015.3
20260507070024 49 317 2.0 5.0 0.00 0.00 0.00 54 1013.9
20260507065710 50 292 1.0 4.0 0.00 0.00 0.00 55 1015.5
20260507065506 50 288 1.0 3.0 0.00 0.00 0.00 54 1014.0
20260507065209 51 287 1.0 6.0 0.00 0.00 0.00 54 1015.7
20260507065003 50 287 1.0 6.0 0.00 0.00 0.00 52 1014.2
20260507064710 51 309 1.0 6.0 0.00 0.00 0.00 53 1015.7
20260507064525 51 309 0.0 6.0 0.00 0.00 0.00 52 1014.1
20260507064210 52 279 1.0 4.0 0.00 0.00 0.00 51 1015.5
20260507064007 51 209 1.0 4.0 0.00 0.00 0.00 51 1013.8
20260507063710 51 209 2.0 5.0 0.00 0.00 0.00 52 1015.3
20260507063511 51 209 1.0 5.0 0.00 0.00 0.00 52 1013.8
20260507063434 51 208 2.0 5.0 0.00 0.00 0.00 53 1015.2
20260507063012 49 234 2.0 5.0 0.00 0.00 0.00 54 1013.9
20260507062709 49 225 1.0 4.0 0.00 0.00 0.00 55 1015.3
20260507062507 48 189 1.0 3.0 0.00 0.00 0.00 55 1013.9
20260507062208 48 268 1.0 3.0 0.00 0.00 0.00 57 1015.5
20260507062003 48 277 0.0 3.0 0.00 0.00 0.00 57 1014.1
20260507061935 48 290 1.0 5.0 0.00 0.00 0.00 57 1015.6
20260507061508 47 286 0.0 5.0 0.00 0.00 0.00 58 1014.3
20260507061207 48 285 1.0 5.0 0.00 0.00 0.00 57 1015.8
20260507061003 47 303 0.0 5.0 0.00 0.00 0.00 59 1014.3
20260507060706 47 209 1.0 5.0 0.00 0.00 0.00 59 1015.9
20260507060502 46 203 1.0 3.0 0.00 0.00 0.00 58 1014.3
20260507060205 47 291 0.0 3.0 0.00 0.00 0.00 59 1016.0
20260507060020 47 124 0.0 2.0 0.00 0.00 0.00 58 1014.4
20260507055925 48 124 0.0 2.0 0.00 0.00 0.00 58 1015.9
20260507055502 47 124 0.0 2.0 0.00 0.00 0.00 58 1014.3
20260507055203 48 124 0.0 2.0 0.00 0.00 0.00 58 1015.9
20260507055009 48 124 0.0 2.0 0.00 0.00 0.00 57 1014.2
20260507054702 48 124 0.0 2.0 0.00 0.00 0.00 57 1015.8
20260507054518 48 124 0.0 1.0 0.00 0.00 0.00 56 1014.1
20260507054202 49 124 0.0 1.0 0.00 0.00 0.00 56 1015.8
20260507054003 48 124 0.0 2.0 0.00 0.00 0.00 56 1014.2
20260507053659 49 124 0.0 2.0 0.00 0.00 0.00 56 1015.8
20260507053504 49 124 0.0 2.0 0.00 0.00 0.00 55 1014.2
20260507053425 50 124 0.0 2.0 0.00 0.00 0.00 55 1015.6
20260507053021 49 124 0.0 2.0 0.00 0.00 0.00 54 1014.1
20260507052653 50 124 0.0 2.0 0.00 0.00 0.00 55 1015.5
20260507052507 50 124 0.0 2.0 0.00 0.00 0.00 55 1014.1
20260507052148 51 124 1.0 2.0 0.00 0.00 0.00 54 1015.6
20260507052007 50 124 0.0 2.0 0.00 0.00 0.00 53 1014.1
20260507051641 51 125 0.0 2.0 0.00 0.00 0.00 52 1015.5
20260507051519 51 103 0.0 3.0 0.00 0.00 0.00 51 1014.1
20260507051135 51 103 0.0 3.0 0.00 0.00 0.00 53 1015.6
20260507051007 51 103 0.0 3.0 0.00 0.00 0.00 52 1014.2
20260507050852 52 103 0.0 3.0 0.00 0.00 0.00 51 1015.6
20260507050510 52 103 0.0 3.0 0.00 0.00 0.00 51 1014.2
20260507050123 52 103 0.0 3.0 0.00 0.00 0.00 51 1015.6
20260507050010 52 103 0.0 3.0 0.00 0.00 0.00 51 1014.2
20260507045617 52 103 1.0 3.0 0.00 0.00 0.00 52 1015.7
20260507045504 52 103 0.0 3.0 0.00 0.00 0.00 52 1014.3
20260507045111 53 103 1.0 3.0 0.00 0.00 0.00 52 1015.7
20260507045006 52 89 0.0 2.0 0.00 0.00 0.00 51 1014.3
20260507044605 53 262 1.0 3.0 0.00 0.00 0.00 52 1015.6
20260507044509 52 262 0.0 3.0 0.00 0.00 0.00 48 1014.2
20260507044100 53 261 1.0 3.0 0.00 0.00 0.00 51 1015.6
20260507044006 53 313 0.0 3.0 0.00 0.00 0.00 50 1014.2
20260507043553 54 128 0.0 4.0 0.00 0.00 0.00 49 1015.8
20260507043503 54 128 0.0 4.0 0.00 0.00 0.00 49 1014.3
20260507043305 55 128 1.0 4.0 0.00 0.00 0.00 50 1015.8
20260507043004 54 128 0.0 4.0 0.00 0.00 0.00 49 1014.3
20260507042541 55 130 1.0 4.0 0.00 0.00 0.00 46 1015.6
20260507042504 54 130 0.0 4.0 0.00 0.00 0.00 45 1014.1
20260507042035 55 167 0.0 4.0 0.00 0.00 0.00 46 1015.5
20260507042003 55 167 1.0 4.0 0.00 0.00 0.00 46 1013.9
20260507041529 55 228 1.0 7.0 0.00 0.00 0.00 46 1015.3
20260507041510 55 232 0.0 7.0 0.00 0.00 0.00 46 1014.1
20260507041247 56 232 2.0 7.0 0.00 0.00 0.00 46 1015.6
20260507041003 55 232 0.0 7.0 0.00 0.00 0.00 44 1014.0
20260507040517 55 273 2.0 6.0 0.00 0.00 0.00 45 1015.5
20260507040502 54 273 1.0 6.0 0.00 0.00 0.00 45 1013.9
20260507040011 53 273 1.0 6.0 0.00 0.00 0.00 47 1015.6
20260507040002 53 242 1.0 6.0 0.00 0.00 0.00 47 1013.9
20260507035507 52 284 1.0 3.0 0.00 0.00 0.00 53 1015.6
20260507035503 52 284 1.0 3.0 0.00 0.00 0.00 52 1014.0
20260507035004 52 295 0.0 3.0 0.00 0.00 0.00 55 1014.0
20260507034959 53 295 1.0 3.0 0.00 0.00 0.00 55 1015.7
20260507034505 53 295 0.0 3.0 0.00 0.00 0.00 54 1014.0
20260507034454 53 295 1.0 3.0 0.00 0.00 0.00 55 1015.6
20260507034003 53 276 0.0 2.0 0.00 0.00 0.00 53 1013.9
20260507033947 53 276 0.0 2.0 0.00 0.00 0.00 53 1015.5
20260507033504 53 275 0.0 4.0 0.00 0.00 0.00 53 1013.9
20260507033441 54 275 0.0 4.0 0.00 0.00 0.00 54 1015.5
20260507033020 54 275 0.0 4.0 0.00 0.00 0.00 52 1013.9
20260507032935 54 275 1.0 4.0 0.00 0.00 0.00 53 1015.6
20260507032503 55 250 0.0 3.0 0.00 0.00 0.00 52 1013.9
20260507032430 55 250 0.0 3.0 0.00 0.00 0.00 52 1015.6
20260507032002 55 294 0.0 1.0 0.00 0.00 0.00 50 1014.0
20260507031923 56 294 0.0 1.0 0.00 0.00 0.00 50 1015.6
20260507031504 56 294 0.0 2.0 0.00 0.00 0.00 51 1013.9
20260507031005 57 294 0.0 2.0 0.00 0.00 0.00 50 1013.9
20260507030911 57 294 0.0 2.0 0.00 0.00 0.00 50 1015.5
20260507030622 58 294 0.0 1.0 0.00 0.00 0.00 50 1015.3
20260507030506 57 294 0.0 1.0 0.00 0.00 0.00 49 1013.9
20260507030005 58 294 0.0 2.0 0.00 0.00 0.00 48 1013.9
20260507025859 59 294 0.0 2.0 0.00 0.00 0.00 48 1015.3
20260507025504 59 294 0.0 2.0 0.00 0.00 0.00 46 1013.8
20260507025353 60 294 0.0 2.0 0.00 0.00 0.00 47 1015.3
20260507025003 60 294 0.0 0.0 0.00 0.00 0.00 46 1013.6
20260507024847 60 294 0.0 0.0 0.00 0.00 0.00 45 1015.3
20260507024509 60 294 0.0 0.0 0.00 0.00 0.00 45 1013.6
20260507024341 61 294 0.0 0.0 0.00 0.00 0.00 46 1015.2
20260507024003 61 294 0.0 0.0 0.00 0.00 0.00 44 1013.4
20260507023835 61 294 0.0 0.0 0.00 0.00 0.00 44 1015.2
20260507023502 61 294 0.0 0.0 0.00 0.00 0.00 42 1013.3
20260507023329 62 294 0.0 0.0 0.00 0.00 0.00 43 1015.1
20260507023008 62 294 0.0 1.0 0.00 0.00 0.00 42 1013.3
20260507022824 62 294 0.0 1.0 0.00 0.00 0.00 42 1015.1
20260507022507 62 294 0.0 2.0 0.00 0.00 0.00 40 1013.4
20260507022317 62 294 0.0 2.0 0.00 0.00 0.00 41 1015.1
20260507022010 62 294 0.0 3.0 0.00 0.00 0.00 39 1013.4
20260507021812 63 294 1.0 4.0 0.00 0.00 0.00 39 1015.1
20260507021527 63 294 1.0 6.0 0.00 0.00 0.00 37 1015.1
20260507021504 63 294 0.0 6.0 0.00 0.00 0.00 37 1013.4
20260507021007 63 294 1.0 6.0 0.00 0.00 0.00 37 1013.4
20260507020756 63 326 0.0 3.0 0.00 0.00 0.00 38 1015.2
20260507020503 63 326 0.0 6.0 0.00 0.00 0.00 38 1013.7
20260507020249 63 326 1.0 6.0 0.00 0.00 0.00 37 1015.3
20260507020004 63 326 0.0 6.0 0.00 0.00 0.00 38 1013.7
20260507015744 63 326 1.0 6.0 0.00 0.00 0.00 37 1015.2
20260507015504 63 271 0.0 4.0 0.00 0.00 0.00 38 1013.6
20260507015237 63 316 1.0 4.0 0.00 0.00 0.00 37 1015.2
20260507015003 63 217 1.0 6.0 0.00 0.00 0.00 37 1013.6
20260507014732 63 209 2.0 6.0 0.00 0.00 0.00 38 1015.2
20260507014515 63 289 0.0 6.0 0.00 0.00 0.00 37 1013.7
20260507014226 63 298 1.0 6.0 0.00 0.00 0.00 38 1015.2
20260507014003 63 180 1.0 4.0 0.00 0.00 0.00 38 1013.7
20260507013719 64 206 0.0 3.0 0.00 0.00 0.00 39 1015.2
20260507013502 63 206 1.0 3.0 0.00 0.00 0.00 38 1013.6
20260507013213 64 202 1.0 9.0 0.00 0.00 0.00 39 1015.3
20260507013020 63 206 0.0 9.0 0.00 0.00 0.00 39 1013.8
20260507012930 64 233 3.0 9.0 0.00 0.00 0.00 38 1015.2
20260507012504 63 232 3.0 9.0 0.00 0.00 0.00 38 1013.8
20260507012423 64 335 3.0 7.0 0.00 0.00 0.00 38 1015.2
20260507012005 63 265 1.0 7.0 0.00 0.00 0.00 37 1013.7
20260507011656 64 250 2.0 7.0 0.00 0.00 0.00 38 1015.2
20260507011518 64 244 3.0 7.0 0.00 0.00 0.00 37 1013.7
20260507011149 65 240 1.0 5.0 0.00 0.00 0.00 38 1015.2
20260507011007 64 223 1.0 3.0 0.00 0.00 0.00 37 1013.7
20260507010644 65 261 1.0 4.0 0.00 0.00 0.00 38 1015.3
20260507010504 64 261 1.0 4.0 0.00 0.00 0.00 37 1013.8
20260507010137 65 267 1.0 4.0 0.00 0.00 0.00 38 1015.3
20260507010008 65 292 1.0 4.0 0.00 0.00 0.00 37 1013.8
20260507005631 65 267 1.0 4.0 0.00 0.00 0.00 38 1015.3
20260507005508 65 267 1.0 4.0 0.00 0.00 0.00 37 1013.9
20260507005125 65 264 2.0 4.0 0.00 0.00 0.00 38 1015.5
20260507005002 65 264 1.0 4.0 0.00 0.00 0.00 37 1013.9
20260507004619 65 241 2.0 5.0 0.00 0.00 0.00 38 1015.6
20260507004512 65 290 2.0 5.0 0.00 0.00 0.00 37 1014.0
20260507004330 66 240 2.0 5.0 0.00 0.00 0.00 37 1015.6
20260507004002 65 240 2.0 5.0 0.00 0.00 0.00 37 1014.0
20260507003607 66 237 1.0 5.0 0.00 0.00 0.00 37 1015.5
20260507003503 65 232 1.0 5.0 0.00 0.00 0.00 36 1014.0
20260507003105 66 294 2.0 5.0 0.00 0.00 0.00 38 1015.5
20260507003008 66 294 1.0 5.0 0.00 0.00 0.00 37 1013.9
20260507002605 66 305 2.0 7.0 0.00 0.00 0.00 38 1015.6
20260507002504 66 294 1.0 7.0 0.00 0.00 0.00 37 1013.9
20260507002004 66 280 2.0 9.0 0.00 0.00 0.00 37 1013.9
20260507001823 66 246 3.0 9.0 0.00 0.00 0.00 38 1015.5
20260507001512 66 165 2.0 9.0 0.00 0.00 0.00 37 1014.0
20260507001103 67 219 3.0 9.0 0.00 0.00 0.00 38 1015.3
20260507001003 66 277 3.0 8.0 0.00 0.00 0.00 37 1013.9
20260507000604 67 265 4.0 8.0 0.00 0.00 0.00 37 1015.6
20260507000505 66 238 2.0 8.0 0.00 0.00 0.00 37 1013.9
20260507000024 66 245 3.0 8.0 0.00 0.00 0.00 37 1013.9
20260506235822 67 291 3.0 8.0 0.00 0.00 0.00 38 1015.6
20260506235508 67 236 2.0 7.0 0.00 0.00 0.00 37 1013.9
20260506235101 67 261 3.0 7.0 0.00 0.00 0.00 37 1015.5
20260506235003 67 263 3.0 7.0 0.00 0.00 0.00 36 1013.9
20260506234601 68 243 2.0 7.0 0.00 0.00 0.00 36 1015.5
20260506234525 67 281 2.0 7.0 0.00 0.00 0.00 36 1013.9
20260506234101 68 287 2.0 7.0 0.00 0.00 0.00 37 1015.5
20260506234006 67 255 2.0 7.0 0.00 0.00 0.00 36 1013.9
20260506233602 68 232 2.0 7.0 0.00 0.00 0.00 37 1015.5
20260506233503 67 233 1.0 7.0 0.00 0.00 0.00 35 1013.9
20260506233101 68 237 3.0 7.0 0.00 0.00 0.00 36 1015.5
20260506233008 68 246 3.0 7.0 0.00 0.00 0.00 36 1014.0
20260506232601 68 252 2.0 6.0 0.00 0.00 0.00 36 1015.5
20260506232503 68 323 3.0 5.0 0.00 0.00 0.00 35 1014.0
20260506232101 69 191 2.0 7.0 0.00 0.00 0.00 35 1015.5
20260506232003 68 257 1.0 6.0 0.00 0.00 0.00 36 1014.0
20260506231601 69 302 2.0 7.0 0.00 0.00 0.00 36 1015.6
20260506231528 68 302 1.0 7.0 0.00 0.00 0.00 36 1014.1
20260506231101 69 188 3.0 11.0 0.00 0.00 0.00 37 1015.7
20260506231003 68 187 1.0 11.0 0.00 0.00 0.00 36 1014.1
20260506230827 69 313 3.0 11.0 0.00 0.00 0.00 35 1015.7
20260506230504 68 257 2.0 11.0 0.00 0.00 0.00 35 1014.2
20260506230007 68 279 2.0 7.0 0.00 0.00 0.00 36 1014.2
20260506225601 69 281 2.0 7.0 0.00 0.00 0.00 38 1015.8
20260506225504 68 239 2.0 7.0 0.00 0.00 0.00 37 1014.2
20260506225100 69 285 2.0 7.0 0.00 0.00 0.00 38 1015.9
20260506225005 68 279 1.0 7.0 0.00 0.00 0.00 38 1014.3
20260506224601 69 244 2.0 8.0 0.00 0.00 0.00 39 1015.8
20260506224522 68 255 1.0 8.0 0.00 0.00 0.00 38 1014.4
20260506224102 68 269 2.0 8.0 0.00 0.00 0.00 40 1015.9
20260506224007 68 297 1.0 8.0 0.00 0.00 0.00 39 1014.4
20260506223558 68 279 2.0 6.0 0.00 0.00 0.00 39 1016.0
20260506223507 68 244 1.0 5.0 0.00 0.00 0.00 38 1014.5
20260506223059 68 242 3.0 6.0 0.00 0.00 0.00 38 1016.0
20260506223037 68 309 2.0 7.0 0.00 0.00 0.00 38 1014.5
20260506222558 68 244 4.0 8.0 0.00 0.00 0.00 39 1016.1
20260506222510 68 249 3.0 8.0 0.00 0.00 0.00 38 1014.5
20260506222059 69 314 3.0 8.0 0.00 0.00 0.00 39 1016.3
20260506222006 68 247 3.0 8.0 0.00 0.00 0.00 38 1014.6
20260506221559 69 250 2.0 5.0 0.00 0.00 0.00 39 1016.1
20260506221509 69 281 1.0 5.0 0.00 0.00 0.00 39 1014.6
20260506221057 69 234 2.0 6.0 0.00 0.00 0.00 39 1016.3
20260506221003 69 243 2.0 6.0 0.00 0.00 0.00 39 1014.7
20260506220551 69 215 3.0 6.0 0.00 0.00 0.00 40 1016.4
20260506220504 68 276 2.0 6.0 0.00 0.00 0.00 39 1014.7
20260506220305 69 263 2.0 5.0 0.00 0.00 0.00 40 1016.4
20260506220014 68 283 3.0 5.0 0.00 0.00 0.00 39 1014.7
20260506215544 69 118 2.0 6.0 0.00 0.00 0.00 42 1016.4
20260506215507 68 118 0.0 9.0 0.00 0.00 0.00 41 1014.7
20260506215045 69 126 3.0 9.0 0.00 0.00 0.00 41 1016.5
20260506215008 68 237 1.0 9.0 0.00 0.00 0.00 40 1014.8
20260506214545 69 254 3.0 9.0 0.00 0.00 0.00 42 1016.5
20260506214513 68 270 2.0 7.0 0.00 0.00 0.00 41 1014.9
20260506214045 69 322 2.0 7.0 0.00 0.00 0.00 39 1016.5
20260506214008 68 319 2.0 7.0 0.00 0.00 0.00 38 1014.9
20260506213545 69 161 2.0 7.0 0.00 0.00 0.00 41 1016.5
20260506213507 68 161 1.0 8.0 0.00 0.00 0.00 40 1014.9
20260506213045 68 281 2.0 8.0 0.00 0.00 0.00 41 1016.5
20260506213008 68 254 1.0 8.0 0.00 0.00 0.00 40 1015.0
20260506212545 68 261 3.0 8.0 0.00 0.00 0.00 40 1016.6
20260506212505 68 259 3.0 8.0 0.00 0.00 0.00 40 1015.0
20260506212043 68 279 3.0 8.0 0.00 0.00 0.00 39 1016.5
20260506212011 68 279 3.0 8.0 0.00 0.00 0.00 39 1015.0
20260506211540 68 298 2.0 6.0 0.00 0.00 0.00 38 1016.5
20260506211537 68 265 2.0 6.0 0.00 0.00 0.00 38 1015.0
20260506211257 68 253 2.0 6.0 0.00 0.00 0.00 38 1016.5
20260506211006 68 253 1.0 6.0 0.00 0.00 0.00 38 1015.0
20260506210538 68 282 2.0 8.0 0.00 0.00 0.00 38 1016.6
20260506210507 68 257 2.0 8.0 0.00 0.00 0.00 37 1015.0
20260506210039 68 314 2.0 8.0 0.00 0.00 0.00 39 1016.6
20260506210030 68 314 1.0 8.0 0.00 0.00 0.00 37 1015.0
20260506205537 68 276 2.0 6.0 0.00 0.00 0.00 38 1016.5
20260506205504 68 250 1.0 6.0 0.00 0.00 0.00 38 1015.0
20260506205037 68 246 3.0 7.0 0.00 0.00 0.00 36 1016.6
20260506205007 68 244 2.0 7.0 0.00 0.00 0.00 35 1014.9
20260506204536 69 310 3.0 7.0 0.00 0.00 0.00 35 1016.7
20260506204516 68 286 4.0 7.0 0.00 0.00 0.00 34 1015.1
20260506204037 69 278 3.0 7.0 0.00 0.00 0.00 36 1016.6
20260506204006 69 240 3.0 7.0 0.00 0.00 0.00 36 1015.1
20260506203536 71 306 2.0 7.0 0.00 0.00 0.00 39 1016.7
20260506203503 70 319 3.0 7.0 0.00 0.00 0.00 38 1015.1
20260506203030 71 102 1.0 6.0 0.00 0.00 0.00 43 1016.6
20260506203027 70 102 2.0 6.0 0.00 0.00 0.00 42 1015.0
20260506202524 70 225 2.0 6.0 0.00 0.00 0.00 40 1016.6
20260506202507 70 325 0.0 6.0 0.00 0.00 0.00 40 1015.0
20260506202018 69 286 2.0 6.0 0.00 0.00 0.00 39 1016.6
20260506202012 69 286 1.0 6.0 0.00 0.00 0.00 39 1015.0
20260506201530 69 267 1.0 8.0 0.00 0.00 0.00 41 1015.1
20260506201512 69 267 2.0 8.0 0.00 0.00 0.00 42 1016.6
20260506201010 68 327 1.0 8.0 0.00 0.00 0.00 41 1015.2
20260506200512 69 265 3.0 8.0 0.00 0.00 0.00 40 1015.2
20260506200501 69 265 3.0 8.0 0.00 0.00 0.00 40 1016.8
20260506200017 68 275 1.0 8.0 0.00 0.00 0.00 42 1015.2
20260506195954 68 309 3.0 8.0 0.00 0.00 0.00 43 1016.7
20260506195506 68 286 3.0 8.0 0.00 0.00 0.00 41 1015.2
20260506195448 68 286 2.0 8.0 0.00 0.00 0.00 42 1016.7
20260506195013 68 315 2.0 6.0 0.00 0.00 0.00 41 1015.2
20260506194943 68 298 2.0 6.0 0.00 0.00 0.00 41 1016.7
20260506194529 67 285 2.0 7.0 0.00 0.00 0.00 39 1015.3
20260506194436 68 309 3.0 7.0 0.00 0.00 0.00 40 1016.8
20260506194008 67 313 2.0 7.0 0.00 0.00 0.00 38 1015.2
20260506193930 68 239 3.0 7.0 0.00 0.00 0.00 39 1016.8
20260506193504 68 225 3.0 8.0 0.00 0.00 0.00 42 1015.3
20260506193425 68 209 3.0 8.0 0.00 0.00 0.00 43 1016.8
20260506193004 68 271 3.0 8.0 0.00 0.00 0.00 42 1015.4
20260506192918 68 277 2.0 8.0 0.00 0.00 0.00 43 1016.9
20260506192502 68 234 2.0 6.0 0.00 0.00 0.00 43 1015.3
20260506192412 68 250 2.0 6.0 0.00 0.00 0.00 44 1016.8
20260506192131 68 323 2.0 6.0 0.00 0.00 0.00 44 1016.8
20260506192004 68 340 1.0 6.0 0.00 0.00 0.00 43 1015.4
20260506191504 67 290 2.0 6.0 0.00 0.00 0.00 42 1015.5
20260506191400 68 293 2.0 6.0 0.00 0.00 0.00 44 1016.9
20260506191007 67 286 1.0 6.0 0.00 0.00 0.00 43 1015.5
20260506190854 67 286 3.0 6.0 0.00 0.00 0.00 43 1016.9
20260506190502 67 281 2.0 6.0 0.00 0.00 0.00 41 1015.5
20260506190348 67 286 2.0 5.0 0.00 0.00 0.00 42 1016.9
20260506190057 67 241 2.0 6.0 0.00 0.00 0.00 42 1016.9
20260506190004 67 236 2.0 5.0 0.00 0.00 0.00 42 1015.5
20260506185504 67 332 2.0 6.0 0.00 0.00 0.00 41 1015.5
20260506185336 67 317 3.0 6.0 0.00 0.00 0.00 42 1016.9
20260506185002 67 285 3.0 6.0 0.00 0.00 0.00 41 1015.4
20260506184830 67 319 2.0 6.0 0.00 0.00 0.00 42 1016.8
20260506184503 67 270 3.0 6.0 0.00 0.00 0.00 41 1015.5
20260506184325 67 308 2.0 9.0 0.00 0.00 0.00 41 1016.8
20260506184004 67 250 1.0 9.0 0.00 0.00 0.00 40 1015.4
20260506183818 67 250 2.0 9.0 0.00 0.00 0.00 41 1016.8
20260506183502 67 280 3.0 9.0 0.00 0.00 0.00 39 1015.3
20260506183312 67 315 3.0 7.0 0.00 0.00 0.00 41 1016.8
20260506183002 67 261 1.0 7.0 0.00 0.00 0.00 40 1015.5
20260506182806 67 243 3.0 7.0 0.00 0.00 0.00 39 1016.9
20260506182502 67 280 3.0 7.0 0.00 0.00 0.00 38 1015.5
20260506182003 67 300 2.0 4.0 0.00 0.00 0.00 39 1015.5
20260506181754 67 286 1.0 4.0 0.00 0.00 0.00 40 1016.8
20260506181509 67 303 1.0 4.0 0.00 0.00 0.00 41 1016.7
20260506181503 67 280 1.0 3.0 0.00 0.00 0.00 40 1015.4
20260506181006 66 299 2.0 6.0 0.00 0.00 0.00 41 1016.7
20260506181003 66 303 1.0 4.0 0.00 0.00 0.00 39 1015.4
20260506180504 66 300 1.0 6.0 0.00 0.00 0.00 40 1015.4
20260506180236 66 238 2.0 6.0 0.00 0.00 0.00 40 1016.7
20260506180011 65 291 1.0 6.0 0.00 0.00 0.00 42 1015.3
20260506175731 65 283 2.0 6.0 0.00 0.00 0.00 43 1016.7
20260506175502 65 310 2.0 6.0 0.00 0.00 0.00 41 1015.4
20260506175223 65 277 2.0 6.0 0.00 0.00 0.00 45 1016.7
20260506175004 65 304 2.0 6.0 0.00 0.00 0.00 45 1015.5
20260506174718 65 260 2.0 6.0 0.00 0.00 0.00 44 1016.8
20260506174511 64 260 2.0 6.0 0.00 0.00 0.00 44 1015.5
20260506174004 64 308 1.0 7.0 0.00 0.00 0.00 47 1015.6
20260506173705 64 313 3.0 7.0 0.00 0.00 0.00 46 1017.1
20260506173503 63 237 3.0 7.0 0.00 0.00 0.00 46 1015.5
20260506173159 64 321 3.0 7.0 0.00 0.00 0.00 46 1017.2
20260506173006 63 280 3.0 6.0 0.00 0.00 0.00 47 1015.6
20260506172654 63 240 3.0 7.0 0.00 0.00 0.00 46 1017.2
20260506172504 63 246 2.0 7.0 0.00 0.00 0.00 48 1015.6
20260506172148 63 244 3.0 7.0 0.00 0.00 0.00 49 1017.2
20260506172002 62 243 3.0 7.0 0.00 0.00 0.00 49 1015.5
20260506171908 63 265 3.0 9.0 0.00 0.00 0.00 50 1017.1
20260506171503 62 238 3.0 9.0 0.00 0.00 0.00 49 1015.6
20260506171356 63 290 3.0 9.0 0.00 0.00 0.00 49 1017.1
20260506171004 62 272 4.0 9.0 0.00 0.00 0.00 49 1015.7
20260506170631 62 284 4.0 8.0 0.00 0.00 0.00 49 1017.2
20260506170503 62 284 3.0 8.0 0.00 0.00 0.00 48 1015.7
20260506170124 62 239 4.0 8.0 0.00 0.00 0.00 49 1017.1
20260506170005 62 287 2.0 8.0 0.00 0.00 0.00 49 1015.7
20260506165618 62 268 3.0 8.0 0.00 0.00 0.00 49 1016.9
20260506165505 62 278 3.0 8.0 0.00 0.00 0.00 49 1015.6
20260506165003 62 299 1.0 6.0 0.00 0.00 0.00 49 1015.6
20260506164827 62 307 3.0 8.0 0.00 0.00 0.00 49 1017.1
20260506164505 62 307 2.0 8.0 0.00 0.00 0.00 48 1015.6
20260506164100 62 276 3.0 8.0 0.00 0.00 0.00 48 1017.2
20260506164004 61 301 3.0 8.0 0.00 0.00 0.00 48 1015.7
20260506163554 62 315 3.0 6.0 0.00 0.00 0.00 49 1017.2
20260506163503 62 279 2.0 6.0 0.00 0.00 0.00 48 1015.6
20260506163048 62 319 2.0 6.0 0.00 0.00 0.00 49 1017.1
20260506163011 61 278 2.0 6.0 0.00 0.00 0.00 48 1015.5
20260506162542 62 298 2.0 5.0 0.00 0.00 0.00 49 1017.1
20260506162502 61 299 2.0 5.0 0.00 0.00 0.00 49 1015.6
20260506162036 62 315 3.0 6.0 0.00 0.00 0.00 49 1017.2
20260506162005 61 298 2.0 6.0 0.00 0.00 0.00 50 1015.6
20260506161530 61 306 2.0 6.0 0.00 0.00 0.00 49 1017.2
20260506161512 61 309 2.0 6.0 0.00 0.00 0.00 48 1015.7
20260506161024 61 287 2.0 6.0 0.00 0.00 0.00 48 1017.2
20260506161003 61 284 2.0 6.0 0.00 0.00 0.00 47 1015.6
20260506160518 61 305 2.0 6.0 0.00 0.00 0.00 46 1017.1
20260506160502 61 305 2.0 6.0 0.00 0.00 0.00 46 1015.6
20260506160011 61 281 2.0 4.0 0.00 0.00 0.00 47 1017.1
20260506160003 60 281 2.0 4.0 0.00 0.00 0.00 47 1015.5
20260506155506 60 294 2.0 4.0 0.00 0.00 0.00 46 1016.9
20260506155502 60 294 2.0 4.0 0.00 0.00 0.00 45 1015.5
20260506155003 60 298 2.0 4.0 0.00 0.00 0.00 46 1015.5
20260506155000 60 298 1.0 4.0 0.00 0.00 0.00 47 1017.1
20260506154504 59 254 0.0 3.0 0.00 0.00 0.00 48 1015.5
20260506154454 60 254 1.0 3.0 0.00 0.00 0.00 49 1017.1
20260506154004 59 247 0.0 3.0 0.00 0.00 0.00 50 1015.5
20260506153948 59 247 1.0 3.0 0.00 0.00 0.00 50 1017.1
20260506153501 58 299 1.0 4.0 0.00 0.00 0.00 49 1015.6
20260506153206 58 283 2.0 4.0 0.00 0.00 0.00 51 1017.2
20260506153003 58 252 1.0 4.0 0.00 0.00 0.00 51 1015.7
20260506152504 58 288 2.0 4.0 0.00 0.00 0.00 51 1015.8
20260506152438 58 288 2.0 4.0 0.00 0.00 0.00 52 1017.3
20260506152006 57 307 2.0 5.0 0.00 0.00 0.00 52 1015.8
20260506151938 57 307 2.0 5.0 0.00 0.00 0.00 54 1017.4
20260506151505 56 275 1.0 5.0 0.00 0.00 0.00 56 1015.9
20260506151438 56 276 2.0 5.0 0.00 0.00 0.00 56 1017.2
20260506151004 54 284 2.0 4.0 0.00 0.00 0.00 60 1015.9
20260506150937 55 277 1.0 3.0 0.00 0.00 0.00 60 1017.3
20260506150504 53 294 0.0 4.0 0.00 0.00 0.00 66 1016.0
20260506150014 51 294 1.0 4.0 0.00 0.00 0.00 68 1015.8
20260506145937 51 294 1.0 4.0 0.00 0.00 0.00 69 1017.2
20260506145501 48 278 1.0 4.0 0.00 0.00 0.00 73 1015.9
20260506145438 48 278 0.0 4.0 0.00 0.00 0.00 77 1017.2
20260506145003 46 296 0.0 0.0 0.00 0.00 0.00 88 1015.7
20260506144939 46 296 0.0 0.0 0.00 0.00 0.00 90 1017.1
20260506144706 46 293 0.0 0.0 0.00 0.00 0.00 93 1016.9
20260506144516 45 293 0.0 0.0 0.00 0.00 0.00 92 1015.7
20260506144002 44 293 0.0 0.0 0.00 0.00 0.00 94 1015.6
20260506143935 45 292 0.0 0.0 0.00 0.00 0.00 94 1016.8
20260506143502 44 296 0.0 0.0 0.00 0.00 0.00 94 1015.5
20260506143435 44 296 0.0 0.0 0.00 0.00 0.00 94 1016.9
20260506143015 43 297 0.0 0.0 0.00 0.00 0.00 94 1015.5
20260506142934 44 297 0.0 0.0 0.00 0.00 0.00 95 1016.8
20260506142503 43 296 0.0 0.0 0.00 0.00 0.00 94 1015.5
20260506142435 43 296 0.0 0.0 0.00 0.00 0.00 95 1016.9
20260506142003 43 296 0.0 0.0 0.00 0.00 0.00 94 1015.6
20260506141935 43 296 0.0 0.0 0.00 0.00 0.00 94 1016.9
20260506141511 42 296 0.0 0.0 0.00 0.00 0.00 93 1015.5
20260506141434 42 296 0.0 0.0 0.00 0.00 0.00 94 1016.9
20260506141006 42 296 0.0 0.0 0.00 0.00 0.00 92 1015.5
20260506140935 42 296 0.0 0.0 0.00 0.00 0.00 93 1016.9
20260506140503 42 298 0.0 0.0 0.00 0.00 0.00 92 1015.4
20260506140434 42 298 0.0 0.0 0.00 0.00 0.00 93 1016.8
20260506140006 41 298 0.0 0.0 0.00 0.00 0.00 92 1015.5
20260506135934 42 298 0.0 0.0 0.00 0.00 0.00 92 1016.9
20260506135656 41 298 0.0 0.0 0.00 0.00 0.00 92 1016.9
20260506135505 41 298 0.0 0.0 0.00 0.00 0.00 91 1015.4
20260506135006 41 298 0.0 0.0 0.00 0.00 0.00 91 1015.4
20260506134933 41 298 0.0 0.0 0.00 0.00 0.00 92 1016.8
20260506134506 41 298 0.0 0.0 0.00 0.00 0.00 91 1015.5
20260506134434 41 298 0.0 0.0 0.00 0.00 0.00 91 1016.8
20260506134005 41 298 0.0 0.0 0.00 0.00 0.00 91 1015.5
20260506133935 41 298 0.0 0.0 0.00 0.00 0.00 91 1016.8
20260506133505 40 298 0.0 0.0 0.00 0.00 0.00 90 1015.5
20260506133434 41 298 0.0 0.0 0.00 0.00 0.00 91 1016.8
20260506133018 40 298 0.0 0.0 0.00 0.00 0.00 90 1015.5
20260506132934 41 298 0.0 0.0 0.00 0.00 0.00 91 1016.8
20260506132502 40 298 0.0 0.0 0.00 0.00 0.00 90 1015.4
20260506132434 41 298 0.0 0.0 0.00 0.00 0.00 90 1016.7
20260506132002 40 298 0.0 0.0 0.00 0.00 0.00 89 1015.4
20260506131934 41 298 0.0 0.0 0.00 0.00 0.00 90 1016.7
20260506131510 40 298 0.0 0.0 0.00 0.00 0.00 89 1015.3
20260506131433 41 298 0.0 0.0 0.00 0.00 0.00 89 1016.7
20260506131007 40 298 0.0 0.0 0.00 0.00 0.00 89 1015.3
20260506130927 41 298 0.0 0.0 0.00 0.00 0.00 89 1016.7
20260506130503 40 298 0.0 0.0 0.00 0.00 0.00 89 1015.2
20260506130422 41 298 0.0 0.0 0.00 0.00 0.00 89 1016.6
20260506130014 40 298 0.0 0.0 0.00 0.00 0.00 89 1015.2
20260506125920 41 298 0.0 0.0 0.00 0.00 0.00 89 1016.7
20260506125506 40 298 0.0 0.0 0.00 0.00 0.00 89 1015.2
20260506125420 41 298 0.0 0.0 0.00 0.00 0.00 89 1016.6
20260506125005 40 298 0.0 0.0 0.00 0.00 0.00 88 1015.2
20260506124920 41 298 0.0 0.0 0.00 0.00 0.00 88 1016.6
20260506124513 40 298 0.0 0.0 0.00 0.00 0.00 88 1015.2
20260506124420 41 298 0.0 0.0 0.00 0.00 0.00 88 1016.6
20260506124005 40 298 0.0 0.0 0.00 0.00 0.00 88 1015.2
20260506123918 41 298 0.0 0.0 0.00 0.00 0.00 89 1016.6
20260506123508 40 298 0.0 0.0 0.00 0.00 0.00 88 1015.2
20260506123417 41 298 0.0 0.0 0.00 0.00 0.00 89 1016.7
20260506123010 41 298 0.0 0.0 0.00 0.00 0.00 88 1015.2
20260506122918 41 298 0.0 0.0 0.00 0.00 0.00 88 1016.6
20260506122643 41 298 0.0 0.0 0.00 0.00 0.00 88 1016.6
20260506122505 41 298 0.0 0.0 0.00 0.00 0.00 87 1015.2
20260506122136 41 298 0.0 0.0 0.00 0.00 0.00 88 1016.7
20260506122011 41 298 0.0 0.0 0.00 0.00 0.00 87 1015.2
20260506121527 41 298 0.0 0.0 0.00 0.00 0.00 86 1015.2
20260506121414 41 298 0.0 0.0 0.00 0.00 0.00 86 1016.7
20260506121007 41 298 0.0 0.0 0.00 0.00 0.00 86 1015.2
20260506120913 41 298 0.0 0.0 0.00 0.00 0.00 87 1016.7
20260506120506 41 298 0.0 0.0 0.00 0.00 0.00 86 1015.3
20260506120414 41 298 0.0 0.0 0.00 0.00 0.00 87 1016.7
20260506120010 41 298 0.0 0.0 0.00 0.00 0.00 87 1015.2
20260506115914 41 298 0.0 0.0 0.00 0.00 0.00 87 1016.7
20260506115504 41 298 0.0 0.0 0.00 0.00 0.00 88 1015.3
20260506115413 42 298 0.0 0.0 0.00 0.00 0.00 88 1016.7
20260506115002 41 298 0.0 0.0 0.00 0.00 0.00 87 1015.3
20260506114914 42 298 0.0 0.0 0.00 0.00 0.00 87 1016.7
20260506114513 41 298 0.0 0.0 0.00 0.00 0.00 86 1015.2
20260506114414 42 298 0.0 0.0 0.00 0.00 0.00 87 1016.8
20260506114010 41 298 0.0 0.0 0.00 0.00 0.00 87 1015.3
20260506113506 41 298 0.0 0.0 0.00 0.00 0.00 86 1015.3
20260506113411 42 298 0.0 0.0 0.00 0.00 0.00 86 1016.7
20260506113129 42 298 0.0 0.0 0.00 0.00 0.00 87 1016.8
20260506113028 41 298 0.0 0.0 0.00 0.00 0.00 87 1015.3
20260506112507 41 298 0.0 0.0 0.00 0.00 0.00 86 1015.3
20260506112357 42 298 0.0 0.0 0.00 0.00 0.00 87 1016.7
20260506112006 41 298 0.0 0.0 0.00 0.00 0.00 86 1015.3
20260506111851 42 298 0.0 0.0 0.00 0.00 0.00 87 1016.8
20260506111519 41 298 0.0 0.0 0.00 0.00 0.00 86 1015.3
20260506111345 42 298 0.0 0.0 0.00 0.00 0.00 86 1016.7
20260506111010 41 298 0.0 0.0 0.00 0.00 0.00 86 1015.3
20260506110839 42 298 0.0 0.0 0.00 0.00 0.00 86 1016.8
20260506110507 42 298 0.0 0.0 0.00 0.00 0.00 86 1015.3
20260506110333 42 298 0.0 0.0 0.00 0.00 0.00 86 1016.8
20260506110016 42 298 0.0 0.0 0.00 0.00 0.00 85 1015.3
20260506105827 42 298 0.0 0.0 0.00 0.00 0.00 85 1016.8
20260506105508 42 298 0.0 0.0 0.00 0.00 0.00 85 1015.3
20260506105320 42 298 0.0 0.0 0.00 0.00 0.00 85 1016.7
20260506105009 42 298 0.0 0.0 0.00 0.00 0.00 84 1015.3
20260506104815 42 298 0.0 0.0 0.00 0.00 0.00 85 1016.7
20260506104524 42 298 0.0 0.0 0.00 0.00 0.00 84 1015.3